INDIA1 VIDP-EHAM

Flight info

Callsign INDIA1
Flight time N/A
Altitude 34000
Route DUDU7E DUDUM A474 NIKOT Q5 UUD J61 LAXOM L639 RASKI N881 KIPOL L444 TOLDA M628 TULBU G652 TOKRA DCT MEDPO DCT ITULU M440 KSA M321 IVONU Z710 SOKOP V166 GAS G662 HIL N697 RUKET L550 NOVPA J981 DATOK L550 GENIV L324 TEZAK N128 OTHON UN128 RDS UL609 MES UG18 GIKAS UN133 PEREN UL863 EVIVI L863 OKANA DCT TONDO DCT GOTAR DCT LIMRA DCT LAMSI L604 RUDNO DCT SULUS L604 RELBI L602 RKN
Aircraft B77W/H-SADE1E2E3FGHIJ2J3J4J5J6J7M1M3P1P2P3RUWXYZ/LB1D1

Departure

Time 2026-04-28 07:34
Airport Indira Gandhi International Airport (VIDP)

Arrival

Time N/A
Airport Amsterdam Airport Schiphol (EHAM)
Time Latitude Longitude Altitude Speed Heading
2026-04-28 07:21 28.57237 77.11353 754 ft 0 kts 121°
2026-04-28 07:27 28.57237 77.11354 754 ft 1 kts 121°
2026-04-28 07:27 28.57231 77.11367 750 ft 3 kts 120°
2026-04-28 07:27 28.57215 77.11394 750 ft 5 kts 127°
2026-04-28 07:27 28.57172 77.11433 750 ft 12 kts 148°
2026-04-28 07:28 28.57103 77.11523 753 ft 16 kts 121°
2026-04-28 07:28 28.57031 77.11612 751 ft 16 kts 165°
2026-04-28 07:28 28.56920 77.11630 753 ft 16 kts 172°
2026-04-28 07:28 28.56840 77.11579 753 ft 16 kts 272°
2026-04-28 07:29 28.56844 77.11450 752 ft 16 kts 272°
2026-04-28 07:29 28.56852 77.11321 755 ft 16 kts 276°
2026-04-28 07:29 28.56858 77.11194 752 ft 16 kts 270°
2026-04-28 07:29 28.56855 77.11063 755 ft 16 kts 271°
2026-04-28 07:30 28.56857 77.10936 751 ft 16 kts 271°
2026-04-28 07:30 28.56860 77.10789 752 ft 22 kts 271°
2026-04-28 07:30 28.56863 77.10564 755 ft 36 kts 271°
2026-04-28 07:30 28.56870 77.10308 751 ft 28 kts 271°
2026-04-28 07:31 28.56875 77.10085 752 ft 28 kts 271°
2026-04-28 07:31 28.56881 77.09862 754 ft 28 kts 271°
2026-04-28 07:31 28.56887 77.09639 755 ft 28 kts 272°
2026-04-28 07:31 28.56892 77.09416 755 ft 28 kts 271°
2026-04-28 07:32 28.56896 77.09192 755 ft 28 kts 271°
2026-04-28 07:32 28.56899 77.08969 751 ft 28 kts 269°
2026-04-28 07:32 28.56953 77.08861 751 ft 12 kts
2026-04-28 07:32 28.57035 77.08887 753 ft 13 kts 44°
2026-04-28 07:33 28.57052 77.09038 755 ft 45 kts 91°
2026-04-28 07:33 28.57036 77.09739 755 ft 130 kts 91°
2026-04-28 07:33 28.57012 77.11059 779 ft 198 kts 90°
2026-04-28 07:33 28.56944 77.12692 1353 ft 212 kts 91°
2026-04-28 07:34 28.56876 77.14497 1716 ft 248 kts 89°
2026-04-28 07:34 28.56832 77.16557 2266 ft 269 kts 89°
2026-04-28 07:34 28.56786 77.18706 3136 ft 273 kts 89°
2026-04-28 07:34 28.56739 77.20884 3944 ft 279 kts 89°
2026-04-28 07:35 28.56687 77.23103 4816 ft 280 kts 89°
2026-04-28 07:35 28.56637 77.25343 5600 ft 286 kts 90°
2026-04-28 07:35 28.56586 77.27622 6363 ft 290 kts 90°
2026-04-28 07:35 28.56536 77.29952 7065 ft 296 kts 91°
2026-04-28 07:36 28.56481 77.32320 7774 ft 301 kts 91°
2026-04-28 07:36 28.56422 77.34706 8550 ft 304 kts 92°
2026-04-28 07:36 28.56340 77.37088 9203 ft 306 kts 98°
2026-04-28 07:36 28.55628 77.39356 9728 ft 308 kts 129°
2026-04-28 07:37 28.54098 77.40999 10005 ft 304 kts 154°
2026-04-28 07:37 28.52127 77.41731 10000 ft 295 kts 180°
2026-04-28 07:37 28.50111 77.41521 10006 ft 289 kts 199°
2026-04-28 07:37 28.48310 77.40597 9994 ft 283 kts 217°
2026-04-28 07:38 28.46731 77.39292 10010 ft 283 kts 219°
2026-04-28 07:38 28.45145 77.37946 10005 ft 285 kts 219°
2026-04-28 07:38 28.43556 77.36601 10004 ft 286 kts 219°
2026-04-28 07:38 28.41951 77.35250 10005 ft 287 kts 219°
2026-04-28 07:39 28.40343 77.33905 10004 ft 287 kts 219°
2026-04-28 07:39 28.38727 77.32561 10000 ft 287 kts 219°
2026-04-28 07:39 28.37115 77.31227 9996 ft 287 kts 218°
2026-04-28 07:39 28.35505 77.29894 9995 ft 285 kts 218°
2026-04-28 07:40 28.33922 77.28555 9992 ft 281 kts 224°
2026-04-28 07:40 28.32611 77.26948 10015 ft 276 kts 233°
2026-04-28 07:40 28.31440 77.25216 10006 ft 277 kts 234°
2026-04-28 07:40 28.30280 77.23469 10001 ft 277 kts 234°
2026-04-28 07:41 28.29102 77.21732 10013 ft 281 kts 234°
2026-04-28 07:41 28.27853 77.19923 10187 ft 303 kts 233°
2026-04-28 07:41 28.26488 77.17966 10386 ft 328 kts 233°
2026-04-28 07:41 28.25020 77.15870 10578 ft 350 kts 233°
2026-04-28 07:42 28.23479 77.13676 11074 ft 360 kts 233°
2026-04-28 07:42 28.21899 77.11427 11736 ft 367 kts 233°
2026-04-28 07:42 28.20300 77.09156 12515 ft 370 kts 234°
2026-04-28 07:42 28.18690 77.06870 13350 ft 372 kts 234°
2026-04-28 07:43 28.17065 77.04561 14047 ft 376 kts 234°
2026-04-28 07:43 28.15424 77.02228 14684 ft 381 kts 234°
2026-04-28 07:43 28.13782 76.99897 15319 ft 385 kts 234°
2026-04-28 07:43 28.12082 76.97485 15996 ft 389 kts 234°
2026-04-28 07:44 28.10408 76.95111 16659 ft 393 kts 234°
2026-04-28 07:44 28.08696 76.92684 17319 ft 397 kts 234°
2026-04-28 07:44 28.06940 76.90196 17979 ft 401 kts 234°
2026-04-28 07:44 28.05215 76.87754 18551 ft 404 kts 234°
2026-04-28 07:45 28.03449 76.85253 19110 ft 409 kts 234°
2026-04-28 07:45 28.01663 76.82727 19653 ft 413 kts 233°
2026-04-28 07:45 27.99860 76.80181 20212 ft 417 kts 233°
2026-04-28 07:45 27.98037 76.77612 20762 ft 421 kts 233°
2026-04-28 07:46 27.96190 76.75015 21287 ft 425 kts 233°
2026-04-28 07:46 27.94327 76.72397 21829 ft 429 kts 233°
2026-04-28 07:46 27.92505 76.69838 22342 ft 433 kts 233°
2026-04-28 07:46 27.90564 76.67113 22877 ft 437 kts 233°
2026-04-28 07:47 27.88647 76.64422 23386 ft 441 kts 233°
2026-04-28 07:47 27.86718 76.61715 23790 ft 444 kts 233°
2026-04-28 07:47 27.84775 76.58990 24227 ft 447 kts 233°
2026-04-28 07:47 27.82817 76.56246 24661 ft 450 kts 232°
2026-04-28 07:48 27.80843 76.53488 25092 ft 453 kts 232°
2026-04-28 07:48 27.78607 76.50949 25483 ft 459 kts 219°
2026-04-28 07:48 27.75960 76.48914 25907 ft 463 kts 214°
2026-04-28 07:48 27.73230 76.46972 26322 ft 465 kts 214°
2026-04-28 07:49 27.70476 76.45011 26738 ft 468 kts 214°
2026-04-28 07:49 27.67763 76.43035 27135 ft 471 kts 215°
2026-04-28 07:49 27.65021 76.40997 27513 ft 474 kts 215°
2026-04-28 07:49 27.62269 76.38925 27887 ft 476 kts 215°
2026-04-28 07:50 27.59512 76.36839 28243 ft 479 kts 215°
2026-04-28 07:50 27.56736 76.34742 28594 ft 482 kts 215°
2026-04-28 07:50 27.53944 76.32638 28940 ft 484 kts 215°
2026-04-28 07:50 27.51131 76.30532 29265 ft 487 kts 214°
2026-04-28 07:51 27.48255 76.28493 29559 ft 489 kts 213°
2026-04-28 07:51 27.45338 76.26503 29830 ft 492 kts 212°
2026-04-28 07:51 27.42396 76.24523 30160 ft 491 kts 212°
2026-04-28 07:51 27.39471 76.22556 30580 ft 489 kts 212°
2026-04-28 07:52 27.36559 76.20585 31017 ft 486 kts 213°
2026-04-28 07:52 27.33670 76.18617 31423 ft 484 kts 213°
2026-04-28 07:52 27.30793 76.16649 31769 ft 484 kts 213°
2026-04-28 07:52 27.27919 76.14681 32116 ft 483 kts 213°
2026-04-28 07:53 27.25057 76.12721 32465 ft 481 kts 214°
2026-04-28 07:53 27.22200 76.10766 32818 ft 480 kts 214°
2026-04-28 07:53 27.19354 76.08820 33153 ft 479 kts 214°
2026-04-28 07:53 27.16512 76.06878 33466 ft 478 kts 214°
2026-04-28 07:54 27.13671 76.04938 33697 ft 479 kts 214°
2026-04-28 07:54 27.10813 76.02988 33729 ft 482 kts 214°
2026-04-28 07:54 27.05106 75.99098 33758 ft 478 kts 214°
2026-04-28 07:55 26.99438 75.95241 33762 ft 475 kts 214°
2026-04-28 07:55 26.93799 75.91405 33770 ft 473 kts 214°
2026-04-28 07:56 26.88167 75.87578 33774 ft 473 kts 214°
2026-04-28 07:56 26.82466 75.83855 33776 ft 476 kts 210°
2026-04-28 07:57 26.76331 75.81046 33782 ft 481 kts 204°
2026-04-28 07:57 26.70034 75.78439 33777 ft 483 kts 204°
2026-04-28 07:58 26.63730 75.75801 33773 ft 484 kts 204°
2026-04-28 07:58 26.57418 75.73135 33762 ft 485 kts 205°
2026-04-28 07:59 26.51103 75.70463 33756 ft 485 kts 205°
2026-04-28 07:59 26.44778 75.67791 33751 ft 486 kts 205°
2026-04-28 08:00 26.38453 75.65124 33748 ft 486 kts 205°
2026-04-28 08:00 26.32129 75.62462 33749 ft 486 kts 205°
2026-04-28 08:01 26.25796 75.59797 33748 ft 486 kts 205°
2026-04-28 08:01 26.19467 75.57137 33743 ft 486 kts 205°
2026-04-28 08:02 26.13140 75.54482 33748 ft 486 kts 205°
2026-04-28 08:02 26.06805 75.51826 33748 ft 487 kts 205°
2026-04-28 08:03 26.00468 75.49172 33744 ft 487 kts 205°
2026-04-28 08:03 25.94120 75.46516 33751 ft 487 kts 205°
2026-04-28 08:04 25.88215 75.43104 33749 ft 478 kts 220°
2026-04-28 08:04 25.83297 75.38249 33748 ft 470 kts 232°
2026-04-28 08:05 25.78976 75.32815 33745 ft 469 kts 233°
2026-04-28 08:05 25.74658 75.27386 33752 ft 469 kts 232°
2026-04-28 08:06 25.70315 75.21990 33751 ft 469 kts 232°
2026-04-28 08:06 25.65953 75.16605 33750 ft 468 kts 232°
2026-04-28 08:07 25.61596 75.11238 33757 ft 468 kts 232°
2026-04-28 08:07 25.57273 75.05915 33757 ft 467 kts 232°
2026-04-28 08:08 25.52927 75.00570 33755 ft 467 kts 232°
2026-04-28 08:08 25.48582 74.95231 33756 ft 467 kts 232°
2026-04-28 08:09 25.44235 74.89897 33761 ft 466 kts 232°
2026-04-28 08:09 25.39886 74.84565 33764 ft 466 kts 232°
2026-04-28 08:10 25.36272 74.80140 33754 ft 466 kts 232°
2026-04-28 08:10 25.31924 74.74822 33762 ft 466 kts 232°
2026-04-28 08:11 25.27565 74.69496 33761 ft 466 kts 232°
2026-04-28 08:11 25.23217 74.64189 33763 ft 466 kts 232°
2026-04-28 08:12 25.18861 74.58878 33764 ft 466 kts 232°
2026-04-28 08:12 25.14510 74.53579 33765 ft 466 kts 232°
2026-04-28 08:13 25.10154 74.48279 33764 ft 466 kts 232°
2026-04-28 08:13 25.05804 74.42987 33770 ft 465 kts 232°
2026-04-28 08:14 25.01451 74.37695 33763 ft 465 kts 232°
2026-04-28 08:14 24.97103 74.32415 33770 ft 465 kts 232°
2026-04-28 08:15 24.92753 74.27139 33767 ft 465 kts 232°
2026-04-28 08:15 24.88398 74.21863 33766 ft 465 kts 232°
2026-04-28 08:16 24.84078 74.16635 33772 ft 465 kts 232°
2026-04-28 08:16 24.79723 74.11370 33796 ft 465 kts 232°
2026-04-28 08:17 24.75368 74.06112 33802 ft 465 kts 232°
2026-04-28 08:17 24.71015 74.00860 33810 ft 465 kts 232°
2026-04-28 08:18 24.66659 73.95610 33789 ft 465 kts 232°
2026-04-28 08:18 24.62330 73.90338 33788 ft 463 kts 235°
2026-04-28 08:19 24.58664 73.84584 33810 ft 458 kts 242°
2026-04-28 08:19 24.55303 73.78642 33804 ft 458 kts 242°
2026-04-28 08:20 24.51917 73.72703 33802 ft 459 kts 242°
2026-04-28 08:20 24.48515 73.66772 33805 ft 459 kts 242°
2026-04-28 08:21 24.45107 73.60849 33802 ft 458 kts 242°
2026-04-28 08:21 24.41722 73.54975 33799 ft 458 kts 242°
2026-04-28 08:22 24.38316 73.49070 33797 ft 458 kts 241°
2026-04-28 08:22 24.34910 73.43171 33801 ft 457 kts 241°
2026-04-28 08:23 24.31502 73.37276 33803 ft 458 kts 241°
2026-04-28 08:23 24.28091 73.31383 33794 ft 458 kts 241°
2026-04-28 08:24 24.24679 73.25495 33790 ft 457 kts 242°
2026-04-28 08:24 24.21258 73.19595 33793 ft 462 kts 241°
2026-04-28 08:25 24.17787 73.13617 33793 ft 468 kts 241°
2026-04-28 08:26 24.12507 73.04541 33788 ft 474 kts 241°
2026-04-28 08:26 24.08950 72.98437 33785 ft 477 kts 241°
2026-04-28 08:27 24.05370 72.92303 33777 ft 478 kts 241°
2026-04-28 08:27 24.01790 72.86174 33767 ft 478 kts 241°
2026-04-28 08:28 23.98210 72.80056 33765 ft 477 kts 241°
2026-04-28 08:28 23.94639 72.73957 33764 ft 476 kts 241°
2026-04-28 08:29 23.91070 72.67870 33757 ft 475 kts 241°
2026-04-28 08:29 23.87511 72.61806 33758 ft 474 kts 240°
2026-04-28 08:30 23.83951 72.55749 33758 ft 474 kts 240°
2026-04-28 08:30 23.80387 72.49691 33753 ft 474 kts 240°
2026-04-28 08:31 23.76823 72.43641 33749 ft 474 kts 240°
2026-04-28 08:31 23.73253 72.37587 33747 ft 475 kts 240°
2026-04-28 08:32 23.69667 72.31516 33745 ft 476 kts 240°
2026-04-28 08:32 23.66102 72.25487 33739 ft 476 kts 240°
2026-04-28 08:33 23.62509 72.19417 33737 ft 477 kts 240°
2026-04-28 08:33 23.58908 72.13342 33737 ft 477 kts 240°
2026-04-28 08:34 23.55303 72.07267 33733 ft 477 kts 240°
2026-04-28 08:34 23.51691 72.01187 33740 ft 477 kts 240°
2026-04-28 08:35 23.48078 71.95114 33737 ft 478 kts 240°
2026-04-28 08:35 23.44461 71.89040 33745 ft 478 kts 240°
2026-04-28 08:36 23.40843 71.82972 33741 ft 478 kts 240°
2026-04-28 08:36 23.37218 71.76899 33743 ft 478 kts 240°
2026-04-28 08:37 23.33587 71.70826 33744 ft 478 kts 240°
2026-04-28 08:37 23.29956 71.64757 33744 ft 479 kts 240°
2026-04-28 08:38 23.26319 71.58686 33746 ft 479 kts 240°
2026-04-28 08:38 23.22676 71.52613 33738 ft 479 kts 240°
2026-04-28 08:39 23.19029 71.46540 33754 ft 480 kts 240°
2026-04-28 08:39 23.15375 71.40462 33752 ft 480 kts 240°
2026-04-28 08:40 23.11720 71.34390 33754 ft 480 kts 240°
2026-04-28 08:40 23.08059 71.28315 33759 ft 481 kts 240°
2026-04-28 08:41 23.04393 71.22240 33756 ft 481 kts 240°
2026-04-28 08:41 23.00739 71.16191 33763 ft 482 kts 240°
2026-04-28 08:42 22.97065 71.10114 33771 ft 482 kts 239°
2026-04-28 08:42 22.93356 71.03989 33769 ft 482 kts 240°
2026-04-28 08:43 22.89697 70.97952 33773 ft 483 kts 239°
2026-04-28 08:43 22.86005 70.91867 33780 ft 483 kts 239°
2026-04-28 08:44 22.82639 70.85613 33774 ft 477 kts 252°
2026-04-28 08:44 22.81171 70.78658 33786 ft 474 kts 266°
2026-04-28 08:45 22.81408 70.71556 33789 ft 473 kts 275°
2026-04-28 08:45 22.81951 70.64433 33788 ft 474 kts 275°
2026-04-28 08:46 22.82452 70.57289 33788 ft 476 kts 274°
2026-04-28 08:46 22.82911 70.50120 33787 ft 477 kts 274°
2026-04-28 08:47 22.83348 70.43055 33784 ft 477 kts 274°
2026-04-28 08:47 22.83794 70.35798 33784 ft 478 kts 274°
2026-04-28 08:48 22.84234 70.28616 33789 ft 477 kts 274°
2026-04-28 08:48 22.84672 70.21438 33778 ft 477 kts 274°
2026-04-28 08:49 22.85106 70.14270 33780 ft 476 kts 274°
2026-04-28 08:49 22.85536 70.07107 33777 ft 476 kts 274°
2026-04-28 08:50 22.85963 69.99937 33780 ft 476 kts 274°
2026-04-28 08:50 22.86386 69.92778 33775 ft 476 kts 274°
2026-04-28 08:51 22.86804 69.85652 33772 ft 476 kts 274°
2026-04-28 08:51 22.87222 69.78480 33772 ft 477 kts 274°
2026-04-28 08:52 22.87637 69.71301 33774 ft 477 kts 274°
2026-04-28 08:52 22.88078 69.64122 33774 ft 477 kts 274°
2026-04-28 08:53 22.88552 69.56939 33773 ft 478 kts 274°
2026-04-28 08:53 22.88944 69.50965 33778 ft 478 kts 274°
2026-04-28 08:54 22.89406 69.43776 33770 ft 478 kts 274°
2026-04-28 08:54 22.89862 69.36594 33775 ft 478 kts 274°
2026-04-28 08:55 22.90315 69.29392 33776 ft 478 kts 274°
2026-04-28 08:55 22.90765 69.22198 33769 ft 478 kts 274°
2026-04-28 08:56 22.91211 69.15010 33770 ft 478 kts 274°
2026-04-28 08:56 22.91655 69.07812 33764 ft 478 kts 274°
2026-04-28 08:57 22.92096 69.00608 33763 ft 478 kts 274°
2026-04-28 08:57 22.92534 68.93397 33763 ft 478 kts 274°
2026-04-28 08:58 22.92965 68.86238 33764 ft 479 kts 274°
2026-04-28 08:58 22.93396 68.79033 33761 ft 479 kts 274°
2026-04-28 08:59 22.93825 68.71818 33758 ft 479 kts 274°
2026-04-28 08:59 22.94250 68.64598 33761 ft 479 kts 274°
2026-04-28 09:00 22.94672 68.57379 33765 ft 479 kts 274°
2026-04-28 09:00 22.95091 68.50159 33764 ft 479 kts 274°
2026-04-28 09:01 22.95507 68.42942 33760 ft 479 kts 274°
2026-04-28 09:01 22.95842 68.35709 33752 ft 480 kts 272°
2026-04-28 09:02 22.95853 68.28466 33753 ft 480 kts 271°
2026-04-28 09:02 22.95826 68.21271 33758 ft 480 kts 271°
2026-04-28 09:03 22.95817 68.14031 33763 ft 480 kts 271°
2026-04-28 09:03 22.95817 68.06785 33754 ft 480 kts 271°
2026-04-28 09:04 22.95814 67.99543 33754 ft 480 kts 271°
2026-04-28 09:04 22.95808 67.92294 33753 ft 480 kts 271°
2026-04-28 09:05 22.95800 67.85050 33754 ft 480 kts 271°
2026-04-28 09:05 22.95815 67.77858 33751 ft 480 kts 271°
2026-04-28 09:06 22.95836 67.70618 33756 ft 479 kts 271°
2026-04-28 09:06 22.95850 67.63379 33756 ft 479 kts 271°
2026-04-28 09:07 22.95858 67.56131 33753 ft 479 kts 271°
2026-04-28 09:07 22.95863 67.48904 33751 ft 479 kts 271°
2026-04-28 09:08 22.95864 67.41681 33753 ft 479 kts 271°
2026-04-28 09:08 22.95863 67.34492 33753 ft 479 kts 271°
2026-04-28 09:09 22.95858 67.27253 33753 ft 480 kts 271°
2026-04-28 09:09 22.95851 67.19998 33752 ft 481 kts 271°
2026-04-28 09:10 22.95842 67.12731 33752 ft 481 kts 271°
2026-04-28 09:10 22.95826 67.05469 33749 ft 482 kts 271°
2026-04-28 09:11 22.95807 66.98193 33754 ft 482 kts 271°
2026-04-28 09:11 22.95815 66.90917 33751 ft 482 kts 271°
2026-04-28 09:12 22.95869 66.83649 33755 ft 482 kts 271°
2026-04-28 09:12 22.95923 66.76377 33753 ft 482 kts 271°
2026-04-28 09:13 22.95965 66.69109 33749 ft 482 kts 271°
2026-04-28 09:13 22.95999 66.61876 33748 ft 482 kts 271°
2026-04-28 09:14 22.96029 66.54604 33747 ft 482 kts 271°
2026-04-28 09:14 22.96057 66.47334 33746 ft 482 kts 271°
2026-04-28 09:15 22.96082 66.40058 33749 ft 482 kts 271°
2026-04-28 09:15 22.96103 66.32778 33752 ft 482 kts 271°
2026-04-28 09:16 22.96120 66.25539 33747 ft 483 kts 271°
2026-04-28 09:16 22.96135 66.18250 33751 ft 483 kts 271°
2026-04-28 09:17 22.96146 66.10959 33750 ft 483 kts 271°
2026-04-28 09:17 22.96154 66.03665 33747 ft 483 kts 271°
2026-04-28 09:18 22.96159 65.96367 33748 ft 484 kts 271°
2026-04-28 09:18 22.96161 65.89069 33750 ft 484 kts 271°
2026-04-28 09:19 22.96158 65.81766 33750 ft 484 kts 271°
2026-04-28 09:19 22.96153 65.74464 33748 ft 484 kts 271°
2026-04-28 09:20 22.96144 65.67208 33746 ft 484 kts 271°
2026-04-28 09:20 22.96132 65.59907 33749 ft 484 kts 271°
2026-04-28 09:21 22.96117 65.52606 33747 ft 484 kts 271°
2026-04-28 09:21 22.96098 65.45307 33746 ft 484 kts 271°
2026-04-28 09:22 22.96075 65.38001 33749 ft 484 kts 271°
2026-04-28 09:22 22.96050 65.30702 33750 ft 484 kts 271°
2026-04-28 09:23 22.96021 65.23403 33749 ft 484 kts 271°
2026-04-28 09:23 22.95989 65.16108 33747 ft 484 kts 271°
2026-04-28 09:24 22.95953 65.08859 33747 ft 483 kts 271°
2026-04-28 09:24 22.95914 65.01551 33746 ft 484 kts 271°
2026-04-28 09:25 22.95871 64.94253 33744 ft 484 kts 271°
2026-04-28 09:25 22.95826 64.86961 33745 ft 483 kts 271°
2026-04-28 09:26 22.96111 64.79691 33752 ft 482 kts 277°
2026-04-28 09:26 22.96912 64.72470 33753 ft 482 kts 278°
2026-04-28 09:27 22.98100 64.61640 33748 ft 482 kts 277°
2026-04-28 09:27 22.98857 64.54459 33745 ft 482 kts 277°
2026-04-28 09:28 22.99611 64.47226 33745 ft 482 kts 277°
2026-04-28 09:28 23.00362 64.39994 33747 ft 481 kts 277°
2026-04-28 09:29 23.01111 64.32765 33747 ft 481 kts 277°
2026-04-28 09:29 23.01850 64.25596 33747 ft 481 kts 277°
2026-04-28 09:30 23.02590 64.18388 33743 ft 481 kts 277°
2026-04-28 09:30 23.03327 64.11172 33743 ft 481 kts 277°
2026-04-28 09:31 23.04062 64.03947 33750 ft 481 kts 277°
2026-04-28 09:31 23.04792 63.96729 33748 ft 481 kts 277°
2026-04-28 09:32 23.05520 63.89509 33747 ft 481 kts 277°
2026-04-28 09:32 23.05915 63.82263 33761 ft 481 kts 272°
2026-04-28 09:33 23.05977 63.75023 33747 ft 482 kts 272°
2026-04-28 09:33 23.06034 63.67743 33747 ft 482 kts 272°
2026-04-28 09:34 23.06103 63.60578 33745 ft 483 kts 272°
2026-04-28 09:34 23.06180 63.53270 33742 ft 483 kts 272°
2026-04-28 09:35 23.06254 63.45971 33746 ft 483 kts 272°
2026-04-28 09:35 23.06324 63.38716 33746 ft 483 kts 272°
2026-04-28 09:36 23.06390 63.31423 33749 ft 483 kts 272°
2026-04-28 09:36 23.06453 63.24118 33743 ft 483 kts 272°
2026-04-28 09:37 23.06513 63.16827 33746 ft 483 kts 272°
2026-04-28 09:37 23.06569 63.09534 33745 ft 483 kts 272°
2026-04-28 09:38 23.06622 63.02245 33743 ft 483 kts 272°
2026-04-28 09:38 23.06671 62.94944 33743 ft 482 kts 272°
2026-04-28 09:39 23.06717 62.87708 33745 ft 482 kts 272°
2026-04-28 09:39 23.06760 62.80416 33747 ft 482 kts 272°
2026-04-28 09:40 23.06799 62.73133 33739 ft 482 kts 272°
2026-04-28 09:40 23.06835 62.65857 33746 ft 482 kts 272°
2026-04-28 09:41 23.06868 62.58572 33745 ft 482 kts 272°
2026-04-28 09:41 23.06898 62.51294 33738 ft 482 kts 272°
2026-04-28 09:42 23.06923 62.44061 33744 ft 482 kts 272°
2026-04-28 09:42 23.06946 62.36783 33745 ft 481 kts 271°
2026-04-28 09:43 23.06962 62.30739 33742 ft 481 kts 271°
2026-04-28 09:43 23.06979 62.23470 33739 ft 481 kts 271°
2026-04-28 09:44 23.06994 62.14966 33739 ft 481 kts 271°
2026-04-28 09:44 23.07002 62.08914 33746 ft 481 kts 271°
2026-04-28 09:45 23.07009 62.01688 33738 ft 482 kts 271°
2026-04-28 09:45 23.07012 61.94406 33739 ft 482 kts 271°
2026-04-28 09:46 23.07011 61.87135 33738 ft 482 kts 271°
2026-04-28 09:46 23.07007 61.79859 33739 ft 482 kts 271°
2026-04-28 09:47 23.07001 61.72582 33735 ft 482 kts 271°
2026-04-28 09:47 23.06977 61.65308 33737 ft 482 kts 271°
2026-04-28 09:48 23.06945 61.58030 33742 ft 482 kts 271°
2026-04-28 09:48 23.06912 61.50757 33742 ft 482 kts 271°
2026-04-28 09:49 23.06334 61.43504 33742 ft 483 kts 264°
2026-04-28 09:49 23.05342 61.36290 33744 ft 483 kts 263°
2026-04-28 09:50 23.04367 61.29121 33735 ft 483 kts 263°
2026-04-28 09:50 23.03407 61.21900 33740 ft 483 kts 264°
2026-04-28 09:51 23.02447 61.14661 33739 ft 484 kts 264°
2026-04-28 09:51 23.01484 61.07427 33736 ft 484 kts 263°
2026-04-28 09:52 23.00516 61.00201 33741 ft 484 kts 263°
2026-04-28 09:52 22.99551 60.93011 33739 ft 484 kts 263°
2026-04-28 09:53 22.98580 60.85772 33737 ft 484 kts 263°
2026-04-28 09:53 22.97612 60.78543 33735 ft 484 kts 263°
2026-04-28 09:54 22.96638 60.71305 33738 ft 484 kts 263°
2026-04-28 09:54 22.95660 60.64070 33735 ft 484 kts 263°
2026-04-28 09:55 22.94679 60.56836 33734 ft 485 kts 263°
2026-04-28 09:55 22.93699 60.49640 33738 ft 485 kts 263°
2026-04-28 09:56 22.92711 60.42408 33735 ft 485 kts 263°
2026-04-28 09:56 22.91718 60.35162 33737 ft 485 kts 263°
2026-04-28 09:57 22.90722 60.27924 33747 ft 486 kts 263°
2026-04-28 09:57 22.90221 60.24288 33848 ft 486 kts 263°
2026-04-28 09:57 22.89721 60.20673 34034 ft 485 kts 263°
2026-04-28 09:58 22.89216 60.17059 34221 ft 483 kts 263°
2026-04-28 09:58 22.88717 60.13502 34375 ft 483 kts 263°
2026-04-28 09:58 22.88211 60.09906 34500 ft 483 kts 263°
2026-04-28 09:58 22.87703 60.06303 34645 ft 483 kts 263°
2026-04-28 09:59 22.87196 60.02704 34814 ft 482 kts 263°
2026-04-28 09:59 22.86689 59.99116 35027 ft 480 kts 263°
2026-04-28 09:59 22.86185 59.95552 35298 ft 477 kts 263°
2026-04-28 09:59 22.85682 59.91995 35607 ft 473 kts 263°
2026-04-28 10:00 22.84690 59.84973 35710 ft 466 kts 263°
2026-04-28 10:00 22.83740 59.78107 35724 ft 461 kts 263°
2026-04-28 10:01 22.82792 59.71246 35737 ft 460 kts 263°
2026-04-28 10:01 22.81836 59.64377 35740 ft 461 kts 263°
2026-04-28 10:02 22.80876 59.57514 35737 ft 460 kts 263°
2026-04-28 10:02 22.79910 59.50632 35752 ft 463 kts 263°
2026-04-28 10:03 22.78940 59.43746 35763 ft 467 kts 263°
2026-04-28 10:03 22.77956 59.36778 35764 ft 468 kts 263°
2026-04-28 10:04 22.76961 59.29801 35765 ft 468 kts 263°
2026-04-28 10:04 22.75960 59.22832 35769 ft 467 kts 263°
2026-04-28 10:05 22.74958 59.15891 35759 ft 465 kts 263°
2026-04-28 10:05 22.73963 59.08987 35769 ft 463 kts 263°
2026-04-28 10:06 22.72974 59.02162 35767 ft 462 kts 263°
2026-04-28 10:06 22.71975 58.95287 35767 ft 462 kts 263°
2026-04-28 10:07 22.70972 58.88409 35769 ft 462 kts 263°
2026-04-28 10:07 22.69966 58.81529 35766 ft 463 kts 262°
2026-04-28 10:08 22.68955 58.74635 35762 ft 463 kts 262°
2026-04-28 10:08 22.67941 58.67743 35761 ft 464 kts 262°
2026-04-28 10:09 22.67609 58.60843 35763 ft 462 kts 275°
2026-04-28 10:09 22.68571 58.53965 35758 ft 463 kts 285°
2026-04-28 10:10 22.70349 58.47260 35769 ft 464 kts 286°
2026-04-28 10:10 22.72173 58.40549 35762 ft 465 kts 286°
2026-04-28 10:11 22.73962 58.33813 35778 ft 465 kts 285°
2026-04-28 10:11 22.75726 58.27068 35771 ft 466 kts 285°
2026-04-28 10:12 22.77486 58.20306 35781 ft 465 kts 285°
2026-04-28 10:12 22.79231 58.13600 35775 ft 465 kts 285°
2026-04-28 10:13 22.80986 58.06842 35778 ft 465 kts 285°
2026-04-28 10:13 22.82735 58.00097 35781 ft 465 kts 285°
2026-04-28 10:14 22.84482 57.93344 35779 ft 465 kts 285°
2026-04-28 10:14 22.86225 57.86596 35794 ft 465 kts 285°
2026-04-28 10:15 22.87966 57.79840 35799 ft 465 kts 285°
2026-04-28 10:15 22.89694 57.73080 35804 ft 465 kts 285°
2026-04-28 10:16 22.91359 57.66350 35811 ft 465 kts 285°
2026-04-28 10:16 22.93030 57.59556 35815 ft 466 kts 285°
2026-04-28 10:17 22.94702 57.52774 35825 ft 465 kts 285°
2026-04-28 10:17 22.96372 57.45989 35835 ft 465 kts 285°
2026-04-28 10:18 22.98043 57.39194 35837 ft 465 kts 285°
2026-04-28 10:18 22.99032 57.32307 35835 ft 464 kts 268°
2026-04-28 10:19 22.97691 57.25446 35829 ft 470 kts 248°
2026-04-28 10:19 22.94695 57.19171 35844 ft 473 kts 244°
2026-04-28 10:20 22.91572 57.12856 35843 ft 475 kts 245°
2026-04-28 10:20 22.88508 57.06494 35842 ft 476 kts 245°
2026-04-28 10:21 22.85462 57.00102 35829 ft 478 kts 245°
2026-04-28 10:21 22.82402 56.93700 35826 ft 478 kts 245°
2026-04-28 10:22 22.79358 56.87338 35825 ft 479 kts 245°
2026-04-28 10:22 22.76292 56.80935 35820 ft 478 kts 245°
2026-04-28 10:23 22.73228 56.74542 35817 ft 478 kts 245°
2026-04-28 10:23 22.70168 56.68164 35810 ft 477 kts 245°
2026-04-28 10:24 22.67108 56.61797 35802 ft 476 kts 245°
2026-04-28 10:24 22.64049 56.55439 35792 ft 476 kts 245°
2026-04-28 10:25 22.60988 56.49085 35796 ft 476 kts 245°
2026-04-28 10:25 22.57927 56.42739 35789 ft 476 kts 245°
2026-04-28 10:26 22.54876 56.36421 35789 ft 476 kts 245°
2026-04-28 10:26 22.51795 56.30063 35765 ft 477 kts 244°
2026-04-28 10:27 22.48710 56.23710 35769 ft 477 kts 244°
2026-04-28 10:27 22.45622 56.17356 35778 ft 477 kts 244°
2026-04-28 10:28 22.42544 56.11030 35774 ft 478 kts 244°
2026-04-28 10:29 22.37893 56.01484 35774 ft 479 kts 244°
2026-04-28 10:29 22.34770 55.95115 35769 ft 479 kts 244°
2026-04-28 10:30 22.31644 55.88764 35764 ft 479 kts 244°
2026-04-28 10:30 22.28517 55.82411 35761 ft 479 kts 244°
2026-04-28 10:31 22.25383 55.76050 35765 ft 479 kts 244°
2026-04-28 10:31 22.22257 55.69699 35763 ft 479 kts 244°
2026-04-28 10:32 22.19123 55.63336 35756 ft 480 kts 244°
2026-04-28 10:32 22.16714 55.56700 35766 ft 474 kts 259°
2026-04-28 10:33 22.16120 55.49686 35751 ft 472 kts 274°
2026-04-28 10:33 22.16721 55.42623 35756 ft 473 kts 276°
2026-04-28 10:34 22.17383 55.35548 35757 ft 474 kts 276°
2026-04-28 10:34 22.18002 55.28450 35754 ft 475 kts 275°
2026-04-28 10:35 22.18586 55.21345 35753 ft 476 kts 275°
2026-04-28 10:35 22.19155 55.14266 35751 ft 476 kts 275°
2026-04-28 10:36 22.19724 55.07149 35753 ft 476 kts 275°
2026-04-28 10:36 22.20293 55.00031 35751 ft 476 kts 275°
2026-04-28 10:37 22.20766 54.94072 35751 ft 475 kts 275°
2026-04-28 10:37 22.21325 54.87010 35750 ft 475 kts 275°
2026-04-28 10:38 22.21883 54.79906 35753 ft 475 kts 275°
2026-04-28 10:38 22.22439 54.72816 35750 ft 474 kts 275°
2026-04-28 10:39 22.22991 54.65716 35750 ft 474 kts 275°
2026-04-28 10:39 22.23539 54.58627 35749 ft 474 kts 275°
2026-04-28 10:40 22.24081 54.51573 35750 ft 474 kts 275°
2026-04-28 10:40 22.24624 54.44474 35744 ft 474 kts 275°
2026-04-28 10:41 22.25164 54.37378 35747 ft 474 kts 275°
2026-04-28 10:41 22.25701 54.30273 35752 ft 474 kts 275°
2026-04-28 10:42 22.26234 54.23173 35752 ft 474 kts 275°
2026-04-28 10:42 22.26762 54.16104 35751 ft 474 kts 275°
2026-04-28 10:43 22.27289 54.09004 35744 ft 474 kts 275°
2026-04-28 10:43 22.27814 54.01899 35742 ft 474 kts 275°
2026-04-28 10:44 22.28335 53.94800 35751 ft 474 kts 275°
2026-04-28 10:44 22.28849 53.87751 35742 ft 474 kts 275°
2026-04-28 10:45 22.29364 53.80660 35745 ft 474 kts 275°
2026-04-28 10:45 22.29875 53.73563 35751 ft 474 kts 275°
2026-04-28 10:46 22.30384 53.66465 35745 ft 474 kts 275°
2026-04-28 10:46 22.30888 53.59375 35742 ft 473 kts 275°
2026-04-28 10:47 22.31390 53.52286 35740 ft 473 kts 275°
2026-04-28 10:47 22.31888 53.45198 35742 ft 473 kts 275°
2026-04-28 10:48 22.32383 53.38117 35744 ft 473 kts 275°
2026-04-28 10:48 22.32875 53.31026 35744 ft 473 kts 275°
2026-04-28 10:49 22.33361 53.23982 35742 ft 473 kts 275°
2026-04-28 10:49 22.33846 53.16902 35743 ft 473 kts 275°
2026-04-28 10:50 22.34329 53.09814 35740 ft 473 kts 275°
2026-04-28 10:50 22.34809 53.02729 35741 ft 473 kts 275°
2026-04-28 10:51 22.35282 52.95682 35743 ft 473 kts 275°
2026-04-28 10:51 22.35755 52.88599 35741 ft 473 kts 275°
2026-04-28 10:52 22.36225 52.81517 35744 ft 473 kts 275°
2026-04-28 10:52 22.36692 52.74436 35742 ft 473 kts 274°
2026-04-28 10:53 22.37155 52.67357 35744 ft 472 kts 274°
2026-04-28 10:53 22.37615 52.60278 35741 ft 472 kts 274°
2026-04-28 10:54 22.38072 52.53198 35738 ft 472 kts 274°
2026-04-28 10:54 22.38523 52.46166 35740 ft 472 kts 274°
2026-04-28 10:55 22.38974 52.39094 35746 ft 471 kts 274°
2026-04-28 10:55 22.39420 52.32027 35744 ft 471 kts 274°
2026-04-28 10:56 22.39864 52.24957 35747 ft 471 kts 274°
2026-04-28 10:56 22.40389 52.17912 35733 ft 469 kts 281°
2026-04-28 10:56 22.41343 52.14538 35749 ft 470 kts 292°
2026-04-28 10:57 22.42853 52.11400 35754 ft 472 kts 301°
2026-04-28 10:57 22.44818 52.08551 35740 ft 475 kts 312°
2026-04-28 10:57 22.47193 52.06070 35754 ft 475 kts 314°
2026-04-28 10:58 22.52046 52.01239 35747 ft 478 kts 315°
2026-04-28 10:58 22.56926 51.96344 35747 ft 479 kts 314°
2026-04-28 10:59 22.61781 51.91384 35746 ft 480 kts 314°
2026-04-28 10:59 22.66629 51.86393 35745 ft 481 kts 314°
2026-04-28 11:00 22.71474 51.81397 35743 ft 480 kts 313°
2026-04-28 11:00 22.76308 51.76410 35735 ft 480 kts 313°
2026-04-28 11:01 22.81139 51.71424 35734 ft 479 kts 313°
2026-04-28 11:01 22.85959 51.66445 35740 ft 478 kts 313°
2026-04-28 11:02 22.90764 51.61475 35731 ft 477 kts 313°
2026-04-28 11:02 22.95531 51.56539 35744 ft 476 kts 313°
2026-04-28 11:03 23.00325 51.51570 35744 ft 476 kts 313°
2026-04-28 11:03 23.05118 51.46596 35739 ft 477 kts 313°
2026-04-28 11:04 23.09912 51.41617 35733 ft 477 kts 313°
2026-04-28 11:04 23.14708 51.36629 35741 ft 477 kts 313°
2026-04-28 11:05 23.19505 51.31636 35740 ft 477 kts 313°
2026-04-28 11:05 23.24300 51.26638 35727 ft 478 kts 313°
2026-04-28 11:06 23.29066 51.21667 35726 ft 478 kts 313°
2026-04-28 11:06 23.33382 51.16243 35741 ft 472 kts 302°
2026-04-28 11:07 23.36670 51.10093 35718 ft 468 kts 292°
2026-04-28 11:07 23.39179 51.03565 35728 ft 467 kts 290°
2026-04-28 11:08 23.41634 50.97011 35732 ft 467 kts 290°
2026-04-28 11:08 23.44108 50.90465 35731 ft 467 kts 290°
2026-04-28 11:09 23.46597 50.83931 35731 ft 467 kts 290°
2026-04-28 11:09 23.49075 50.77436 35732 ft 467 kts 290°
2026-04-28 11:10 23.51562 50.70907 35732 ft 466 kts 290°
2026-04-28 11:10 23.54045 50.64377 35732 ft 466 kts 290°
2026-04-28 11:11 23.56523 50.57849 35731 ft 466 kts 290°
2026-04-28 11:11 23.58997 50.51320 35736 ft 466 kts 290°
2026-04-28 11:12 23.61451 50.44835 35735 ft 465 kts 290°
2026-04-28 11:12 23.63917 50.38307 35733 ft 465 kts 290°
2026-04-28 11:13 23.66378 50.31785 35737 ft 465 kts 290°
2026-04-28 11:13 23.68836 50.25263 35738 ft 465 kts 290°
2026-04-28 11:14 23.71290 50.18741 35737 ft 464 kts 290°
2026-04-28 11:14 23.73741 50.12215 35738 ft 464 kts 290°
2026-04-28 11:15 23.76188 50.05692 35737 ft 464 kts 290°
2026-04-28 11:15 23.78614 49.99213 35744 ft 464 kts 290°
2026-04-28 11:16 23.81050 49.92698 35742 ft 463 kts 290°
2026-04-28 11:16 23.83482 49.86183 35743 ft 463 kts 290°
2026-04-28 11:17 23.85912 49.79666 35747 ft 463 kts 289°
2026-04-28 11:17 23.88338 49.73152 35743 ft 462 kts 289°
2026-04-28 11:18 23.90754 49.66651 35743 ft 462 kts 289°
2026-04-28 11:18 23.93170 49.60141 35745 ft 462 kts 289°
2026-04-28 11:19 23.95567 49.53674 35741 ft 462 kts 289°
2026-04-28 11:19 23.97972 49.47173 35747 ft 461 kts 289°
2026-04-28 11:20 24.00376 49.40666 35750 ft 461 kts 289°
2026-04-28 11:20 24.02777 49.34159 35749 ft 461 kts 289°
2026-04-28 11:21 24.05171 49.27658 35748 ft 461 kts 289°
2026-04-28 11:21 24.07564 49.21151 35752 ft 460 kts 289°
2026-04-28 11:22 24.09952 49.14648 35752 ft 460 kts 289°
2026-04-28 11:22 24.12334 49.08150 35751 ft 460 kts 289°
2026-04-28 11:23 24.14716 49.01639 35754 ft 460 kts 289°
2026-04-28 11:23 24.17091 48.95139 35754 ft 460 kts 289°
2026-04-28 11:24 24.19441 48.88626 35752 ft 459 kts 288°
2026-04-28 11:24 24.21622 48.82110 35757 ft 458 kts 287°
2026-04-28 11:25 24.23780 48.75540 35759 ft 458 kts 287°
2026-04-28 11:25 24.25949 48.68980 35759 ft 458 kts 287°
2026-04-28 11:26 24.28125 48.62426 35761 ft 457 kts 287°
2026-04-28 11:26 24.30301 48.55874 35768 ft 457 kts 287°
2026-04-28 11:27 24.32472 48.49324 35764 ft 457 kts 287°
2026-04-28 11:27 24.34640 48.42771 35769 ft 457 kts 287°
2026-04-28 11:28 24.36789 48.36264 35773 ft 457 kts 287°
2026-04-28 11:28 24.38954 48.29696 35775 ft 457 kts 287°
2026-04-28 11:29 24.41110 48.23145 35782 ft 457 kts 287°
2026-04-28 11:29 24.43264 48.16593 35782 ft 456 kts 287°
2026-04-28 11:30 24.45054 48.11136 35787 ft 456 kts 287°
2026-04-28 11:30 24.48621 48.00240 35793 ft 456 kts 286°
2026-04-28 11:31 24.50415 47.94749 35804 ft 456 kts 286°
2026-04-28 11:31 24.52897 47.87134 35811 ft 456 kts 286°
2026-04-28 11:32 24.54685 47.81645 35819 ft 455 kts 286°
2026-04-28 11:32 24.56972 47.75197 35822 ft 456 kts 289°
2026-04-28 11:33 24.59443 47.68762 35830 ft 457 kts 289°
2026-04-28 11:33 24.61911 47.62338 35836 ft 456 kts 289°
2026-04-28 11:34 24.64364 47.55896 35841 ft 457 kts 289°
2026-04-28 11:34 24.66805 47.49449 35850 ft 457 kts 289°
2026-04-28 11:35 24.69241 47.43003 35857 ft 456 kts 288°
2026-04-28 11:35 24.71674 47.36558 35859 ft 456 kts 288°
2026-04-28 11:36 24.74106 47.30104 35863 ft 456 kts 288°
2026-04-28 11:36 24.76518 47.23697 35871 ft 456 kts 288°
2026-04-28 11:37 24.78941 47.17250 35871 ft 456 kts 288°
2026-04-28 11:37 24.81359 47.10804 35878 ft 455 kts 288°
2026-04-28 11:38 24.83776 47.04354 35884 ft 455 kts 288°
2026-04-28 11:38 24.86186 46.97909 35881 ft 455 kts 288°
2026-04-28 11:39 24.88597 46.91450 35890 ft 455 kts 288°
2026-04-28 11:39 24.91002 46.84999 35889 ft 455 kts 288°
2026-04-28 11:40 24.93389 46.78587 35880 ft 455 kts 288°
2026-04-28 11:40 24.95552 46.72059 35893 ft 451 kts 282°
2026-04-28 11:41 24.96837 46.65326 35874 ft 447 kts 274°
2026-04-28 11:41 24.97471 46.58511 35878 ft 447 kts 273°
2026-04-28 11:42 24.98073 46.51690 35886 ft 447 kts 273°
2026-04-28 11:42 24.98689 46.44874 35898 ft 447 kts 273°
2026-04-28 11:43 24.99313 46.38057 35899 ft 447 kts 273°
2026-04-28 11:43 24.99932 46.31292 35905 ft 447 kts 273°
2026-04-28 11:44 25.00552 46.24471 35917 ft 447 kts 273°
2026-04-28 11:44 25.01168 46.17653 35923 ft 447 kts 273°
2026-04-28 11:45 25.01781 46.10833 35923 ft 447 kts 273°
2026-04-28 11:45 25.02391 46.04023 35914 ft 446 kts 273°
2026-04-28 11:46 25.02998 45.97200 35916 ft 446 kts 273°
2026-04-28 11:46 25.03599 45.90399 35912 ft 446 kts 273°
2026-04-28 11:47 25.04194 45.83639 35912 ft 445 kts 272°
2026-04-28 11:47 25.04789 45.76843 35912 ft 445 kts 272°
2026-04-28 11:48 25.05683 45.70096 35912 ft 448 kts 280°
2026-04-28 11:48 25.07479 45.63473 35911 ft 452 kts 285°
2026-04-28 11:49 25.10045 45.57105 35910 ft 456 kts 290°
2026-04-28 11:49 25.12843 45.50823 35904 ft 456 kts 290°
2026-04-28 11:50 25.15631 45.44535 35906 ft 456 kts 290°
2026-04-28 11:50 25.18387 45.38237 35909 ft 456 kts 290°
2026-04-28 11:51 25.21130 45.31929 35916 ft 456 kts 290°
2026-04-28 11:51 25.23870 45.25617 35916 ft 456 kts 290°
2026-04-28 11:52 25.26591 45.19342 35914 ft 455 kts 290°
2026-04-28 11:52 25.29325 45.13030 35913 ft 454 kts 290°
2026-04-28 11:53 25.32049 45.06733 35917 ft 454 kts 289°
2026-04-28 11:53 25.34772 45.00427 35919 ft 454 kts 289°
2026-04-28 11:54 25.37486 44.94133 35916 ft 453 kts 289°
2026-04-28 11:54 25.40179 44.87879 35919 ft 453 kts 289°
2026-04-28 11:55 25.42886 44.81583 35913 ft 453 kts 289°
2026-04-28 11:55 25.45587 44.75292 35919 ft 452 kts 289°
2026-04-28 11:56 25.48282 44.69001 35916 ft 452 kts 289°
2026-04-28 11:56 25.50998 44.62726 35923 ft 453 kts 291°
2026-04-28 11:57 25.54508 44.56889 35926 ft 463 kts 300°
2026-04-28 11:57 25.58849 44.51532 35914 ft 473 kts 308°
2026-04-28 11:58 25.63702 44.46565 35917 ft 476 kts 309°
2026-04-28 11:58 25.68602 44.41607 35922 ft 476 kts 309°
2026-04-28 11:59 25.73465 44.36624 35908 ft 476 kts 309°
2026-04-28 11:59 25.78308 44.31620 35911 ft 476 kts 309°
2026-04-28 12:00 25.83150 44.26604 35912 ft 476 kts 308°
2026-04-28 12:00 25.87989 44.21587 35904 ft 475 kts 308°
2026-04-28 12:01 25.92819 44.16576 35902 ft 475 kts 308°
2026-04-28 12:01 25.97611 44.11599 35903 ft 474 kts 308°
2026-04-28 12:02 26.02419 44.06600 35903 ft 473 kts 308°
2026-04-28 12:02 26.07224 44.01597 35897 ft 472 kts 308°
2026-04-28 12:03 26.12020 43.96596 35900 ft 472 kts 308°
2026-04-28 12:03 26.16822 43.91583 35890 ft 472 kts 308°
2026-04-28 12:04 26.21589 43.86600 35865 ft 472 kts 308°
2026-04-28 12:04 26.26377 43.81590 35858 ft 471 kts 307°
2026-04-28 12:05 26.30656 43.76194 35869 ft 460 kts 299°
2026-04-28 12:05 26.34110 43.70273 35869 ft 453 kts 294°
2026-04-28 12:06 26.37349 43.64295 35875 ft 453 kts 294°
2026-04-28 12:06 26.40623 43.58277 35872 ft 454 kts 294°
2026-04-28 12:07 26.43909 43.52260 35881 ft 454 kts 294°
2026-04-28 12:07 26.47176 43.46277 35888 ft 454 kts 294°
2026-04-28 12:08 26.50457 43.40261 35895 ft 453 kts 294°
2026-04-28 12:08 26.53737 43.34237 35898 ft 453 kts 294°
2026-04-28 12:09 26.57009 43.28218 35903 ft 453 kts 294°
2026-04-28 12:09 26.60281 43.22190 35904 ft 453 kts 294°
2026-04-28 12:10 26.63529 43.16200 35905 ft 453 kts 294°
2026-04-28 12:10 26.66801 43.10171 35906 ft 453 kts 294°
2026-04-28 12:11 26.70075 43.04145 35911 ft 453 kts 294°
2026-04-28 12:11 26.73344 42.98118 35887 ft 453 kts 294°
2026-04-28 12:12 26.76609 42.92087 35890 ft 453 kts 293°
2026-04-28 12:12 26.79867 42.86056 35891 ft 453 kts 293°
2026-04-28 12:13 26.83106 42.80054 35899 ft 452 kts 293°
2026-04-28 12:13 26.86357 42.74022 35898 ft 452 kts 293°
2026-04-28 12:14 26.89602 42.67992 35902 ft 452 kts 293°
2026-04-28 12:14 26.92840 42.61969 35905 ft 451 kts 293°
2026-04-28 12:15 26.96072 42.55946 35908 ft 451 kts 293°
2026-04-28 12:15 26.99299 42.49924 35910 ft 450 kts 293°
2026-04-28 12:16 27.02494 42.43954 35914 ft 449 kts 293°
2026-04-28 12:16 27.05705 42.37944 35914 ft 449 kts 293°
2026-04-28 12:17 27.08908 42.31943 35917 ft 448 kts 293°
2026-04-28 12:17 27.12102 42.25944 35929 ft 447 kts 293°
2026-04-28 12:18 27.15285 42.19947 35940 ft 446 kts 292°
2026-04-28 12:18 27.18462 42.13948 35928 ft 447 kts 292°
2026-04-28 12:19 27.21637 42.07947 35932 ft 447 kts 292°
2026-04-28 12:19 27.24788 42.01982 35937 ft 447 kts 292°
2026-04-28 12:20 27.27959 41.95974 35952 ft 447 kts 292°
2026-04-28 12:20 27.31131 41.89954 35957 ft 447 kts 292°
2026-04-28 12:21 27.34295 41.83939 35961 ft 447 kts 292°
2026-04-28 12:21 27.37466 41.77904 35969 ft 447 kts 292°
2026-04-28 12:22 27.40560 41.71866 35967 ft 442 kts 289°
2026-04-28 12:22 27.42863 41.65579 35971 ft 434 kts 282°
2026-04-28 12:23 27.44451 41.59075 35975 ft 428 kts 277°
2026-04-28 12:23 27.45766 41.52544 35963 ft 428 kts 277°
2026-04-28 12:24 27.47081 41.46012 35963 ft 428 kts 277°
2026-04-28 12:24 27.48401 41.39506 35959 ft 428 kts 277°
2026-04-28 12:25 27.49732 41.32965 35970 ft 429 kts 277°
2026-04-28 12:25 27.50848 41.27470 35960 ft 429 kts 277°
2026-04-28 12:26 27.52177 41.20911 35961 ft 429 kts 277°
2026-04-28 12:26 27.53502 41.14353 35971 ft 429 kts 277°
2026-04-28 12:27 27.54823 41.07794 35955 ft 429 kts 277°
2026-04-28 12:27 27.56134 41.01272 35959 ft 429 kts 277°
2026-04-28 12:28 27.57447 40.94726 35961 ft 428 kts 277°
2026-04-28 12:28 27.58759 40.88161 35961 ft 428 kts 277°
2026-04-28 12:29 27.60703 40.78389 35969 ft 427 kts 277°
2026-04-28 12:30 27.61998 40.71853 35957 ft 427 kts 277°
2026-04-28 12:30 27.63291 40.65310 35962 ft 427 kts 277°
2026-04-28 12:31 27.64580 40.58770 35963 ft 427 kts 277°
2026-04-28 12:31 27.65868 40.52219 35968 ft 428 kts 277°
2026-04-28 12:32 27.67153 40.45664 35970 ft 428 kts 277°
2026-04-28 12:32 27.68436 40.39105 35972 ft 428 kts 277°
2026-04-28 12:33 27.69707 40.32587 35963 ft 428 kts 277°
2026-04-28 12:33 27.70983 40.26030 35980 ft 427 kts 277°
2026-04-28 12:34 27.72254 40.19477 35984 ft 427 kts 277°
2026-04-28 12:34 27.73523 40.12920 35985 ft 427 kts 277°
2026-04-28 12:35 27.74790 40.06356 35980 ft 428 kts 277°
2026-04-28 12:35 27.76053 39.99793 35980 ft 428 kts 277°
2026-04-28 12:36 27.77308 39.93253 35987 ft 428 kts 277°
2026-04-28 12:36 27.78567 39.86675 35989 ft 429 kts 277°
2026-04-28 12:37 27.79827 39.80078 35990 ft 429 kts 277°
2026-04-28 12:37 27.81083 39.73478 35993 ft 430 kts 277°
2026-04-28 12:38 27.82337 39.66875 35988 ft 430 kts 277°
2026-04-28 12:38 27.83586 39.60276 35988 ft 429 kts 277°
2026-04-28 12:39 27.84833 39.53679 35995 ft 429 kts 277°
2026-04-28 12:39 27.86075 39.47080 35992 ft 429 kts 277°
2026-04-28 12:40 27.87316 39.40466 35991 ft 430 kts 277°
2026-04-28 12:40 27.88544 39.33907 35987 ft 429 kts 277°
2026-04-28 12:41 27.89779 39.27298 35987 ft 429 kts 277°
2026-04-28 12:41 27.91010 39.20681 35994 ft 430 kts 277°
2026-04-28 12:42 27.92237 39.14070 35991 ft 430 kts 277°
2026-04-28 12:42 27.93518 39.07466 35984 ft 431 kts 279°
2026-04-28 12:43 27.95308 39.00949 35991 ft 434 kts 282°
2026-04-28 12:43 27.97122 38.94492 35984 ft 434 kts 282°
2026-04-28 12:44 27.98933 38.87985 35979 ft 434 kts 282°
2026-04-28 12:44 28.00736 38.81471 35980 ft 433 kts 282°
2026-04-28 12:45 28.02532 38.74958 35979 ft 433 kts 282°
2026-04-28 12:45 28.04323 38.68450 35979 ft 433 kts 282°
2026-04-28 12:46 28.06111 38.61938 35981 ft 433 kts 282°
2026-04-28 12:46 28.07898 38.55421 35978 ft 433 kts 282°
2026-04-28 12:47 28.09667 38.48953 35971 ft 433 kts 282°
2026-04-28 12:47 28.11444 38.42445 35981 ft 433 kts 282°
2026-04-28 12:48 28.13219 38.35929 35983 ft 433 kts 282°
2026-04-28 12:48 28.14991 38.29412 35977 ft 433 kts 282°
2026-04-28 12:49 28.16760 38.22890 35970 ft 433 kts 282°
2026-04-28 12:49 28.18527 38.16364 35977 ft 433 kts 282°
2026-04-28 12:50 28.20291 38.09835 35975 ft 433 kts 282°
2026-04-28 12:50 28.22044 38.03335 35973 ft 434 kts 282°
2026-04-28 12:51 28.23806 37.96786 35970 ft 434 kts 282°
2026-04-28 12:51 28.25567 37.90228 35973 ft 434 kts 282°
2026-04-28 12:52 28.27323 37.83674 35976 ft 434 kts 282°
2026-04-28 12:52 28.29069 37.77143 35971 ft 435 kts 282°
2026-04-28 12:53 28.30821 37.70576 35964 ft 435 kts 282°
2026-04-28 12:53 28.32569 37.64008 35964 ft 434 kts 282°
2026-04-28 12:54 28.34314 37.57442 35962 ft 434 kts 282°
2026-04-28 12:54 28.36057 37.50865 35964 ft 435 kts 282°
2026-04-28 12:55 28.37797 37.44289 35962 ft 435 kts 282°
2026-04-28 12:55 28.39520 37.37759 35965 ft 435 kts 282°
2026-04-28 12:56 28.41252 37.31184 35958 ft 434 kts 282°
2026-04-28 12:56 28.42978 37.24613 35964 ft 434 kts 282°
2026-04-28 12:57 28.44704 37.18031 35965 ft 435 kts 282°
2026-04-28 12:57 28.46428 37.11447 35970 ft 435 kts 282°
2026-04-28 12:58 28.48149 37.04849 35963 ft 435 kts 282°
2026-04-28 12:58 28.49869 36.98247 35954 ft 436 kts 282°
2026-04-28 12:59 28.51575 36.91687 35954 ft 435 kts 282°
2026-04-28 12:59 28.53290 36.85085 35949 ft 435 kts 282°
2026-04-28 13:00 28.54999 36.78486 35949 ft 435 kts 282°
2026-04-28 13:00 28.56704 36.71884 35947 ft 435 kts 282°
2026-04-28 13:01 28.58396 36.65319 35943 ft 435 kts 282°
2026-04-28 13:01 28.60094 36.58715 35948 ft 434 kts 282°
2026-04-28 13:02 28.61787 36.52116 35941 ft 434 kts 282°
2026-04-28 13:02 28.63478 36.45506 35949 ft 434 kts 282°
2026-04-28 13:03 28.65165 36.38901 35958 ft 435 kts 282°
2026-04-28 13:03 28.66850 36.32288 35953 ft 435 kts 282°
2026-04-28 13:04 28.68526 36.25698 35953 ft 436 kts 282°
2026-04-28 13:04 28.70209 36.19065 35954 ft 436 kts 282°
2026-04-28 13:05 28.71890 36.12421 35956 ft 437 kts 282°
2026-04-28 13:05 28.73570 36.05769 35950 ft 437 kts 282°
2026-04-28 13:06 28.75247 35.99113 35950 ft 437 kts 282°
2026-04-28 13:06 28.76920 35.92459 35945 ft 437 kts 282°
2026-04-28 13:07 28.78591 35.85798 35952 ft 437 kts 282°
2026-04-28 13:07 28.80260 35.79128 35939 ft 437 kts 282°
2026-04-28 13:08 28.81917 35.72491 35954 ft 437 kts 282°
2026-04-28 13:08 28.83579 35.65820 35940 ft 438 kts 282°
2026-04-28 13:09 28.84963 35.60258 35956 ft 438 kts 282°
2026-04-28 13:09 28.86806 35.52824 35940 ft 438 kts 282°
2026-04-28 13:10 28.88461 35.46140 35925 ft 437 kts 283°
2026-04-28 13:10 28.90100 35.39502 35947 ft 437 kts 282°
2026-04-28 13:11 28.91744 35.32817 35965 ft 438 kts 282°
2026-04-28 13:11 28.93393 35.26105 35936 ft 439 kts 282°
2026-04-28 13:12 28.95038 35.19396 35934 ft 438 kts 282°
2026-04-28 13:12 28.96677 35.12689 35928 ft 438 kts 282°
2026-04-28 13:13 28.98304 35.06028 35931 ft 437 kts 282°
2026-04-28 13:13 28.99930 34.99340 35928 ft 437 kts 282°
2026-04-28 13:14 29.01556 34.92645 35936 ft 437 kts 282°
2026-04-28 13:14 29.02903 34.85892 35945 ft 435 kts 276°
2026-04-28 13:15 29.03421 34.79029 35942 ft 433 kts 269°
2026-04-28 13:15 29.03653 34.72195 35941 ft 433 kts 282°
2026-04-28 13:15 29.04757 34.68965 35958 ft 441 kts 293°
2026-04-28 13:16 29.06356 34.65954 35961 ft 447 kts 299°
2026-04-28 13:16 29.10885 34.60948 35973 ft 465 kts 319°
2026-04-28 13:17 29.16378 34.56927 35968 ft 471 kts 320°
2026-04-28 13:17 29.21876 34.52908 35960 ft 473 kts 319°
2026-04-28 13:18 29.27379 34.48769 35970 ft 474 kts 319°
2026-04-28 13:18 29.32874 34.44583 35970 ft 474 kts 319°
2026-04-28 13:19 29.38350 34.40403 35973 ft 472 kts 319°
2026-04-28 13:19 29.43815 34.36230 35961 ft 471 kts 319°
2026-04-28 13:20 29.48339 34.32773 35979 ft 470 kts 319°
2026-04-28 13:20 29.54660 34.27934 35977 ft 469 kts 319°
2026-04-28 13:21 29.59211 34.24448 35977 ft 469 kts 319°
2026-04-28 13:21 29.64894 34.20669 35985 ft 474 kts 324°
2026-04-28 13:22 29.70716 34.17175 35979 ft 475 kts 325°
2026-04-28 13:22 29.76579 34.13650 35986 ft 476 kts 324°
2026-04-28 13:23 29.82445 34.10088 35986 ft 476 kts 324°
2026-04-28 13:23 29.88302 34.06514 35981 ft 476 kts 324°
2026-04-28 13:24 29.94158 34.02934 35993 ft 476 kts 324°
2026-04-28 13:24 30.00025 33.99344 35992 ft 477 kts 324°
2026-04-28 13:25 30.05848 33.95776 35987 ft 477 kts 325°
2026-04-28 13:25 30.11709 33.92181 35992 ft 477 kts 325°
2026-04-28 13:26 30.17569 33.88581 35987 ft 477 kts 325°
2026-04-28 13:26 30.23426 33.84979 35987 ft 476 kts 325°
2026-04-28 13:27 30.29281 33.81372 35989 ft 476 kts 325°
2026-04-28 13:27 30.35123 33.77768 35990 ft 476 kts 325°
2026-04-28 13:28 30.40975 33.74154 35992 ft 476 kts 325°
2026-04-28 13:28 30.46790 33.70557 35999 ft 476 kts 325°
2026-04-28 13:29 30.52638 33.66935 36001 ft 477 kts 325°
2026-04-28 13:29 30.58496 33.63302 36008 ft 477 kts 325°
2026-04-28 13:30 30.64362 33.59658 36003 ft 477 kts 325°
2026-04-28 13:30 30.70187 33.56035 36011 ft 477 kts 325°
2026-04-28 13:31 30.78970 33.50565 36025 ft 477 kts 325°
2026-04-28 13:31 30.84825 33.46909 36019 ft 477 kts 325°
2026-04-28 13:32 30.90678 33.43252 36023 ft 477 kts 325°
2026-04-28 13:32 30.96534 33.39587 36028 ft 478 kts 325°
2026-04-28 13:33 31.02390 33.35916 36031 ft 478 kts 325°
2026-04-28 13:33 31.08214 33.32261 36036 ft 478 kts 326°
2026-04-28 13:34 31.14080 33.28573 36028 ft 479 kts 326°
2026-04-28 13:34 31.19946 33.24880 36031 ft 479 kts 326°
2026-04-28 13:35 31.25814 33.21180 36030 ft 479 kts 326°
2026-04-28 13:35 31.31681 33.17483 36023 ft 480 kts 327°
2026-04-28 13:36 31.38034 33.14796 36030 ft 492 kts 340°
2026-04-28 13:36 31.44902 33.13715 36023 ft 503 kts 351°
2026-04-28 13:37 31.51872 33.13466 36012 ft 505 kts 352°
2026-04-28 13:37 31.58891 33.13202 36020 ft 505 kts 351°
2026-04-28 13:38 31.65919 33.12856 36002 ft 505 kts 351°
2026-04-28 13:38 31.72948 33.12498 36009 ft 505 kts 351°
2026-04-28 13:39 31.79742 33.11215 36033 ft 488 kts 331°
2026-04-28 13:39 31.82723 33.09374 36181 ft 479 kts 321°
2026-04-28 13:39 31.85283 33.06940 36416 ft 467 kts 309°
2026-04-28 13:40 31.87492 33.04147 36554 ft 467 kts 308°
2026-04-28 13:40 31.89660 33.01369 36724 ft 467 kts 308°
2026-04-28 13:40 31.91887 32.98525 36981 ft 466 kts 308°
2026-04-28 13:40 31.94059 32.95770 37251 ft 464 kts 308°
2026-04-28 13:41 31.96263 32.92994 37526 ft 463 kts 308°
2026-04-28 13:41 31.98460 32.90240 37883 ft 459 kts 308°
2026-04-28 13:41 32.00648 32.87504 37988 ft 458 kts 308°
2026-04-28 13:41 32.02821 32.84788 37993 ft 453 kts 308°
2026-04-28 13:42 32.07108 32.79425 38005 ft 448 kts 308°
2026-04-28 13:42 32.11380 32.74067 38004 ft 449 kts 308°
2026-04-28 13:43 32.15657 32.68691 38007 ft 450 kts 308°
2026-04-28 13:43 32.19944 32.63299 37998 ft 451 kts 308°
2026-04-28 13:44 32.24237 32.57890 38003 ft 452 kts 308°
2026-04-28 13:44 32.28543 32.52458 38001 ft 453 kts 308°
2026-04-28 13:45 32.32817 32.47058 37992 ft 453 kts 308°
2026-04-28 13:45 32.37124 32.41610 37997 ft 453 kts 308°
2026-04-28 13:46 32.41432 32.36150 37997 ft 453 kts 309°
2026-04-28 13:46 32.45739 32.30683 37997 ft 453 kts 309°
2026-04-28 13:47 32.50041 32.25213 37996 ft 453 kts 309°
2026-04-28 13:47 32.54337 32.19743 37999 ft 453 kts 309°
2026-04-28 13:48 32.58636 32.14263 37999 ft 453 kts 309°
2026-04-28 13:48 32.63427 32.09432 38003 ft 462 kts 323°
2026-04-28 13:49 32.69237 32.06036 37992 ft 473 kts 336°
2026-04-28 13:49 32.75568 32.03796 37998 ft 476 kts 338°
2026-04-28 13:50 32.81941 32.01648 37990 ft 476 kts 338°
2026-04-28 13:50 32.88301 31.99434 37999 ft 476 kts 338°
2026-04-28 13:51 32.94652 31.97175 37994 ft 477 kts 338°
2026-04-28 13:51 33.01014 31.94900 37991 ft 477 kts 338°
2026-04-28 13:52 33.07378 31.92624 37991 ft 478 kts 338°
2026-04-28 13:52 33.13747 31.90345 37996 ft 478 kts 338°
2026-04-28 13:53 33.20076 31.88077 37988 ft 478 kts 338°
2026-04-28 13:53 33.26449 31.85789 37986 ft 478 kts 338°
2026-04-28 13:54 33.32822 31.83497 37988 ft 478 kts 338°
2026-04-28 13:54 33.39198 31.81201 37981 ft 478 kts 338°
2026-04-28 13:55 33.45187 31.78102 37999 ft 463 kts 320°
2026-04-28 13:55 33.49818 31.72885 37969 ft 453 kts 302°
2026-04-28 13:56 33.53340 31.66632 37986 ft 453 kts 301°
2026-04-28 13:56 33.56834 31.60325 37989 ft 455 kts 301°
2026-04-28 13:57 33.60378 31.54010 37985 ft 457 kts 301°
2026-04-28 13:57 33.63927 31.47732 37986 ft 458 kts 301°
2026-04-28 13:58 33.67508 31.41397 37983 ft 459 kts 301°
2026-04-28 13:58 33.71065 31.35091 37982 ft 459 kts 301°
2026-04-28 13:59 33.74641 31.28738 37981 ft 459 kts 301°
2026-04-28 13:59 33.78210 31.22386 37980 ft 458 kts 301°
2026-04-28 14:00 33.81781 31.16018 37984 ft 458 kts 301°
2026-04-28 14:00 33.85338 31.09665 37981 ft 458 kts 301°
2026-04-28 14:01 33.88888 31.03311 37983 ft 457 kts 301°
2026-04-28 14:01 33.92429 30.96963 37979 ft 457 kts 301°
2026-04-28 14:02 33.94206 30.93770 37800 ft 461 kts 303°
2026-04-28 14:02 33.96004 30.90543 37915 ft 465 kts 303°
2026-04-28 14:02 33.99617 30.84048 38005 ft 475 kts 303°
2026-04-28 14:03 34.03325 30.77361 38015 ft 484 kts 303°
2026-04-28 14:03 34.07102 30.70532 38011 ft 493 kts 303°
2026-04-28 14:04 34.10930 30.63601 38009 ft 499 kts 303°
2026-04-28 14:04 34.14790 30.56596 38006 ft 503 kts 303°
2026-04-28 14:05 34.18672 30.49539 38002 ft 505 kts 303°
2026-04-28 14:05 34.22552 30.42470 38000 ft 505 kts 303°
2026-04-28 14:06 34.26428 30.35395 37999 ft 504 kts 303°
2026-04-28 14:06 34.30288 30.28337 37999 ft 502 kts 303°
2026-04-28 14:07 34.34122 30.21311 37999 ft 500 kts 303°
2026-04-28 14:07 34.37946 30.14288 38000 ft 498 kts 303°
2026-04-28 14:08 34.41750 30.07288 38001 ft 497 kts 303°
2026-04-28 14:08 34.44948 30.01479 38000 ft 497 kts 306°
2026-04-28 14:09 34.50261 29.94188 38008 ft 497 kts 314°
2026-04-28 14:09 34.55162 29.88266 38001 ft 497 kts 315°
2026-04-28 14:10 34.60045 29.82314 38003 ft 498 kts 314°
2026-04-28 14:10 34.64913 29.76303 38002 ft 499 kts 314°
2026-04-28 14:11 34.68952 29.71288 38002 ft 499 kts 314°
2026-04-28 14:11 34.73808 29.65251 38002 ft 500 kts 314°
2026-04-28 14:12 34.78670 29.59200 38004 ft 500 kts 314°
2026-04-28 14:12 34.83535 29.53137 38002 ft 500 kts 314°
2026-04-28 14:13 34.88735 29.47516 38008 ft 500 kts 320°
2026-04-28 14:13 34.91420 29.44874 38486 ft 485 kts 319°
2026-04-28 14:13 34.93991 29.42369 38506 ft 463 kts 319°
2026-04-28 14:14 34.96481 29.39928 38175 ft 458 kts 318°
2026-04-28 14:14 34.98939 29.37494 38146 ft 454 kts 318°
2026-04-28 14:14 35.01388 29.35051 38026 ft 455 kts 318°
2026-04-28 14:14 35.03849 29.32580 37993 ft 459 kts 318°
2026-04-28 14:15 35.08825 29.27565 37947 ft 467 kts 318°
2026-04-28 14:15 35.13872 29.22470 37946 ft 471 kts 318°
2026-04-28 14:16 35.18902 29.17389 37944 ft 473 kts 318°
2026-04-28 14:16 35.23979 29.12251 37936 ft 473 kts 318°
2026-04-28 14:17 35.29047 29.07115 37933 ft 472 kts 318°
2026-04-28 14:17 35.34096 29.01989 37933 ft 470 kts 318°
2026-04-28 14:18 35.39126 28.96873 37931 ft 469 kts 318°
2026-04-28 14:18 35.44138 28.91767 37933 ft 467 kts 318°
2026-04-28 14:19 35.49131 28.86672 37932 ft 466 kts 318°
2026-04-28 14:19 35.54116 28.81576 37932 ft 466 kts 318°
2026-04-28 14:20 35.59085 28.76487 37934 ft 465 kts 318°
2026-04-28 14:20 35.64029 28.71416 37932 ft 466 kts 318°
2026-04-28 14:21 35.69002 28.66307 37929 ft 466 kts 318°
2026-04-28 14:21 35.73988 28.61176 37929 ft 466 kts 318°
2026-04-28 14:22 35.78966 28.56045 37928 ft 467 kts 318°
2026-04-28 14:22 35.83952 28.50896 37928 ft 467 kts 318°
2026-04-28 14:23 35.88932 28.45745 37929 ft 467 kts 318°
2026-04-28 14:23 35.93914 28.40583 37924 ft 467 kts 318°
2026-04-28 14:24 35.98864 28.35446 37923 ft 467 kts 318°
2026-04-28 14:24 36.03836 28.30277 37927 ft 467 kts 318°
2026-04-28 14:25 36.08808 28.25099 37926 ft 467 kts 318°
2026-04-28 14:25 36.13774 28.19918 37934 ft 467 kts 318°
2026-04-28 14:26 36.18737 28.14732 37935 ft 467 kts 318°
2026-04-28 14:26 36.23701 28.09536 37938 ft 466 kts 318°
2026-04-28 14:27 36.28655 28.04340 37942 ft 466 kts 318°
2026-04-28 14:27 36.33608 27.99138 37938 ft 467 kts 318°
2026-04-28 14:28 36.38562 27.93926 37931 ft 467 kts 318°
2026-04-28 14:28 36.43509 27.88711 37941 ft 466 kts 318°
2026-04-28 14:29 36.48456 27.83488 37942 ft 466 kts 318°
2026-04-28 14:29 36.53397 27.78262 37936 ft 466 kts 318°
2026-04-28 14:30 36.58335 27.73029 37938 ft 466 kts 318°
2026-04-28 14:30 36.63274 27.67787 37939 ft 467 kts 318°
2026-04-28 14:31 36.68216 27.62532 37940 ft 467 kts 318°
2026-04-28 14:31 36.73124 27.57306 37942 ft 467 kts 318°
2026-04-28 14:32 36.78070 27.52030 37942 ft 468 kts 318°
2026-04-28 14:32 36.83015 27.46744 37952 ft 468 kts 318°
2026-04-28 14:33 36.87951 27.41457 37951 ft 467 kts 318°
2026-04-28 14:33 36.92891 27.36162 37959 ft 467 kts 318°
2026-04-28 14:34 37.00286 27.28214 37962 ft 467 kts 318°
2026-04-28 14:35 37.05224 27.22890 37958 ft 468 kts 318°
2026-04-28 14:35 37.10117 27.17608 37954 ft 468 kts 318°
2026-04-28 14:36 37.15049 27.12277 37952 ft 467 kts 318°
2026-04-28 14:36 37.19973 27.06946 37956 ft 467 kts 318°
2026-04-28 14:37 37.24892 27.01609 37957 ft 467 kts 318°
2026-04-28 14:37 37.29809 26.96264 37961 ft 467 kts 318°
2026-04-28 14:38 37.34717 26.90917 37962 ft 467 kts 318°
2026-04-28 14:38 37.39625 26.85562 37963 ft 467 kts 318°
2026-04-28 14:39 37.44531 26.80199 37970 ft 467 kts 318°
2026-04-28 14:39 37.49430 26.74834 37971 ft 467 kts 318°
2026-04-28 14:40 37.54292 26.69501 37974 ft 466 kts 318°
2026-04-28 14:40 37.59184 26.64126 37978 ft 466 kts 318°
2026-04-28 14:41 37.64075 26.58741 37974 ft 466 kts 318°
2026-04-28 14:41 37.68968 26.53343 37986 ft 466 kts 318°
2026-04-28 14:42 37.73857 26.47941 37990 ft 466 kts 318°
2026-04-28 14:42 37.78741 26.42536 38000 ft 466 kts 318°
2026-04-28 14:43 37.83592 26.37156 38005 ft 466 kts 318°
2026-04-28 14:43 37.88464 26.31743 37986 ft 466 kts 318°
2026-04-28 14:44 37.93338 26.26321 38011 ft 466 kts 318°
2026-04-28 14:44 37.98199 26.20900 38015 ft 466 kts 318°
2026-04-28 14:45 38.03065 26.15463 38027 ft 466 kts 318°
2026-04-28 14:45 38.07920 26.10029 38029 ft 466 kts 318°
2026-04-28 14:46 38.12779 26.04580 38026 ft 466 kts 318°
2026-04-28 14:46 38.17634 25.99124 38025 ft 465 kts 318°
2026-04-28 14:47 38.22448 25.93706 38035 ft 465 kts 318°
2026-04-28 14:47 38.27397 25.88385 38039 ft 466 kts 321°
2026-04-28 14:48 38.32565 25.83408 38040 ft 466 kts 322°
2026-04-28 14:48 38.37720 25.78401 38045 ft 466 kts 321°
2026-04-28 14:49 38.42848 25.73338 38053 ft 466 kts 321°
2026-04-28 14:49 38.47981 25.68283 38052 ft 466 kts 322°
2026-04-28 14:50 38.53132 25.63255 38043 ft 466 kts 322°
2026-04-28 14:50 38.58280 25.58224 38065 ft 465 kts 322°
2026-04-28 14:51 38.63389 25.53212 38048 ft 465 kts 322°
2026-04-28 14:51 38.68521 25.48166 38045 ft 465 kts 321°
2026-04-28 14:52 38.73681 25.43082 38050 ft 465 kts 321°
2026-04-28 14:52 38.78765 25.38063 38058 ft 464 kts 321°
2026-04-28 14:53 38.83877 25.33008 38057 ft 464 kts 321°
2026-04-28 14:53 38.88981 25.27951 38056 ft 464 kts 321°
2026-04-28 14:54 38.94086 25.22883 38068 ft 463 kts 321°
2026-04-28 14:54 38.99183 25.17811 38064 ft 464 kts 321°
2026-04-28 14:55 39.04281 25.12729 38070 ft 464 kts 321°
2026-04-28 14:55 39.08521 25.08497 38089 ft 463 kts 321°
2026-04-28 14:56 39.13616 25.03403 38072 ft 464 kts 321°
2026-04-28 14:56 39.18718 24.98292 38080 ft 463 kts 321°
2026-04-28 14:57 39.23805 24.93186 38082 ft 463 kts 321°
2026-04-28 14:57 39.28867 24.88089 38082 ft 463 kts 321°
2026-04-28 14:58 39.33950 24.82960 38089 ft 463 kts 321°
2026-04-28 14:58 39.39023 24.77831 38089 ft 463 kts 321°
2026-04-28 14:59 39.44094 24.72696 38087 ft 463 kts 321°
2026-04-28 14:59 39.49214 24.67643 38092 ft 463 kts 324°
2026-04-28 15:00 39.54839 24.63550 38092 ft 464 kts 332°
2026-04-28 15:00 39.60675 24.59944 38090 ft 465 kts 333°
2026-04-28 15:01 39.66509 24.56329 38090 ft 465 kts 333°
2026-04-28 15:01 39.71125 24.53438 38089 ft 465 kts 332°
2026-04-28 15:02 39.73260 24.52094 38087 ft 465 kts 332°
2026-04-28 15:02 39.79041 24.48444 38106 ft 464 kts 332°
2026-04-28 15:03 39.84854 24.44766 38090 ft 464 kts 332°
2026-04-28 15:03 39.90645 24.41097 38091 ft 463 kts 332°
2026-04-28 15:04 39.96425 24.37428 38090 ft 462 kts 332°
2026-04-28 15:04 40.02199 24.33756 38092 ft 461 kts 332°
2026-04-28 15:05 40.07966 24.30081 38088 ft 460 kts 332°
2026-04-28 15:05 40.13722 24.26407 38092 ft 460 kts 332°
2026-04-28 15:06 40.19468 24.22732 38091 ft 460 kts 332°
2026-04-28 15:06 40.25174 24.19075 38086 ft 460 kts 332°
2026-04-28 15:07 40.30924 24.15383 38090 ft 460 kts 332°
2026-04-28 15:07 40.36666 24.11690 38091 ft 459 kts 332°
2026-04-28 15:08 40.42398 24.07997 38083 ft 459 kts 332°
2026-04-28 15:08 40.48130 24.04295 38085 ft 458 kts 332°
2026-04-28 15:09 40.53856 24.00590 38081 ft 458 kts 332°
2026-04-28 15:09 40.59566 23.96890 38081 ft 457 kts 332°
2026-04-28 15:10 40.65302 23.93251 38081 ft 457 kts 332°
2026-04-28 15:10 40.71053 23.89658 38079 ft 457 kts 333°
2026-04-28 15:11 40.76790 23.86059 38076 ft 456 kts 332°
2026-04-28 15:11 40.82514 23.82449 38082 ft 456 kts 332°
2026-04-28 15:12 40.88205 23.78850 38074 ft 456 kts 332°
2026-04-28 15:12 40.93922 23.75227 38073 ft 456 kts 332°
2026-04-28 15:13 40.99634 23.71601 38074 ft 455 kts 332°
2026-04-28 15:13 41.05343 23.67970 38065 ft 455 kts 332°
2026-04-28 15:14 41.11049 23.64333 38063 ft 455 kts 332°
2026-04-28 15:14 41.16752 23.60692 38058 ft 454 kts 332°
2026-04-28 15:15 41.22452 23.57046 38053 ft 454 kts 332°
2026-04-28 15:15 41.28146 23.53401 38066 ft 454 kts 332°
2026-04-28 15:16 41.33833 23.49756 38051 ft 454 kts 332°
2026-04-28 15:16 41.39485 23.46126 38051 ft 455 kts 332°
2026-04-28 15:17 41.45175 23.42443 38049 ft 454 kts 332°
2026-04-28 15:17 41.50855 23.38736 38056 ft 454 kts 332°
2026-04-28 15:18 41.56527 23.35026 38049 ft 454 kts 332°
2026-04-28 15:18 41.62211 23.31304 38053 ft 454 kts 332°
2026-04-28 15:19 41.67889 23.27580 38052 ft 454 kts 331°
2026-04-28 15:19 41.73568 23.23849 38052 ft 454 kts 331°
2026-04-28 15:20 41.79244 23.20113 38047 ft 454 kts 331°
2026-04-28 15:20 41.84919 23.16369 38044 ft 454 kts 331°
2026-04-28 15:21 41.90576 23.12630 38042 ft 454 kts 331°
2026-04-28 15:21 41.96226 23.08887 38040 ft 454 kts 331°
2026-04-28 15:22 42.01897 23.05125 38040 ft 454 kts 331°
2026-04-28 15:22 42.07574 23.01350 38025 ft 454 kts 331°
2026-04-28 15:23 42.13237 22.97575 38034 ft 454 kts 331°
2026-04-28 15:23 42.18899 22.93799 38029 ft 454 kts 331°
2026-04-28 15:24 42.24562 22.90010 38033 ft 455 kts 331°
2026-04-28 15:24 42.30198 22.86230 38033 ft 455 kts 331°
2026-04-28 15:25 42.35875 22.82416 38040 ft 455 kts 331°
2026-04-28 15:25 42.41557 22.78587 38029 ft 456 kts 331°
2026-04-28 15:26 42.47227 22.74756 38041 ft 456 kts 331°
2026-04-28 15:26 42.52896 22.70918 38042 ft 455 kts 330°
2026-04-28 15:27 42.58551 22.67083 38043 ft 454 kts 331°
2026-04-28 15:27 42.64140 22.63287 38042 ft 453 kts 330°
2026-04-28 15:28 42.69773 22.59450 38050 ft 452 kts 330°
2026-04-28 15:28 42.75388 22.55613 38052 ft 450 kts 330°
2026-04-28 15:29 42.80981 22.51787 38044 ft 449 kts 330°
2026-04-28 15:29 42.86407 22.47742 38025 ft 446 kts 324°
2026-04-28 15:30 42.91548 22.43017 38039 ft 445 kts 323°
2026-04-28 15:30 42.96660 22.38271 38048 ft 444 kts 323°
2026-04-28 15:31 43.01781 22.33529 38063 ft 444 kts 323°
2026-04-28 15:31 43.06906 22.28792 38028 ft 445 kts 323°
2026-04-28 15:32 43.12032 22.24050 38035 ft 445 kts 323°
2026-04-28 15:32 43.17156 22.19299 38038 ft 445 kts 323°
2026-04-28 15:33 43.22282 22.14537 38043 ft 445 kts 323°
2026-04-28 15:33 43.27380 22.09791 38050 ft 446 kts 323°
2026-04-28 15:34 43.32506 22.05008 38047 ft 446 kts 323°
2026-04-28 15:34 43.37638 22.00210 38044 ft 446 kts 323°
2026-04-28 15:35 43.42774 21.95399 38051 ft 447 kts 323°
2026-04-28 15:35 43.47105 21.91332 38047 ft 448 kts 323°